Regional Weather Roundup
Issued by NWS

Home | Current Version | Previous Version | Text Only | Print | Product List | Glossary On
Versions: 1 2 3 4 5 6 7 8 9 10 11 12 13 14 15 16 17 18 19 20 21 22 23 24 25 26 27 28 29 30 31 32 33 34 35 36 37 38 39 40 41 42 43 44 45 46 47 48 49 50
000
ASUS42 KFFC 280203
RWRGA
WEATHER ROUNDUP FOR GEORGIA
NATIONAL WEATHER SERVICE PEACHTREE CITY GA
1000 PM EDT WED MAY 27 2015

NOTE: "FAIR" INDICATES FEW OR NO CLOUDS BELOW 12,000 FEET WITH NO
SIGNIFICANT WEATHER AND/OR OBSTRUCTIONS TO VISIBILITY.

* = USE WITH CAUTION. THE STATIONS MARKED WITH AN ASTERISK MAY NOT
REPORT WEATHER SUCH AS PRECIPITATION, FOG, OR THUNDER AND ARE NOT
QUALITY CONTROLLED BY NWS.

THE REMARK "TC" DENOTES TEMPERATURE READING IN DEGREES CELSIUS.

GAZ001>058-280300-
NORTH GEORGIA

CITY           SKY/WX    TMP DP  RH WIND       PRES   REMARKS
ATLANTA        CLOUDY    77  65  66 CALM      30.20R
ATHENS         CLEAR     71  67  87 SE3       30.20R
CHAMBLEE       CLOUDY    72  67  84 CALM      30.21R
PEACHTREE CITY CLOUDY    73  70  90 CALM      30.20R
ROME           CLOUDY    73  68  84 CALM      30.21R
WEST ATLANTA   CLOUDY    73  68  84 CALM      30.20R
GAINESVILLE    MOCLDY    72  66  81 CALM      30.24R
CARTERSVILLE   CLOUDY    70  66  87 CALM      30.21R


CITY           SKY/WX    TMP DP  RH WIND       PRES   REMARKS
DALTON*        CLOUDY    70  68  94 CALM      30.20R
MARIETTA       CLOUDY    74  68  81 CALM      30.22R
BLAIRSVILLE*     N/A     66  56  68 CALM      30.26R
$$

GAZ059>098-102>109-280300-
CENTRAL GEORGIA

CITY           SKY/WX    TMP DP  RH WIND       PRES   REMARKS
AUGUSTA-BUSH   MOCLDY    76  68  76 SE8       30.19R
AUGUSTA-DANIEL MOCLDY    80  67  64 SE9       30.20R
COLUMBUS       CLOUDY    75  66  73 CALM      30.18R
MACON          CLOUDY    74  65  73 S6        30.19R
ROBINS AFB     CLOUDY    72  68  86 S2        30.18R


CITY           SKY/WX    TMP DP  RH WIND       PRES   REMARKS
LAGRANGE*      CLOUDY    76  76 100 CALM      30.19R
SYLVANIA*      MOCLDY    75  68  78 SE3       30.21R
MILLEDGEVILLE* CLOUDY    77  70  78 CALM      30.20R
$$

GAZ099>101-110>166-280300-
SOUTH GEORGIA

CITY           SKY/WX    TMP DP  RH WIND       PRES   REMARKS
SAVANNAH       MOCLDY    75  65  70 SE5       30.21R
VALDOSTA       MOCLDY    78  66  66 VRB5      30.16R
ALMA           FAIR      75  63  66 SE5       30.19R
FT STEWART     MOCLDY    73  65  74 CALM      30.19R
ALBANY         CLOUDY    75  68  78 CALM      30.19R
HUNTER AFB     MOCLDY    74  67  78 SE1       30.18R
MOODY AFB      MOCLDY    76  63  65 E6        30.16R
BRUNSWICK        N/A     72  64  78 CALM      30.21R


CITY           SKY/WX    TMP DP  RH WIND       PRES   REMARKS
BAINBRIDGE*    CLOUDY    73  72  94 CALM      30.17R
MOULTRIE*      CLOUDY    73  72  94 CALM      30.18R
VIDALIA*       MOCLDY    72  70  94 SE3       30.20R
WAYCROSS*      FAIR      76  67  72 SE6       30.19R
DOUGLAS*       MOCLDY    77  64  65 SE5       30.20R
$$



USA.gov is the U.S. government's official web portal to all federal, state and local government web resources and services.